Location: Unspecified
(52.4292°N, 19.3359°E)
Time: 23:23:20
(UTC+02:00)

Altair - Pass Details

Date: 20 May 2024
Orbit: 1502 x 1682 km, 47.2° (Epoch: 19 June)

Event Time Altitude Azimuth Distance (km) Brightness Sun altitude
Rises 19:18:26 0° 285° (WNW) 4,939 12.4 10.2°
Reaches altitude 10° 19:23:52 10° 262° (W) 3,937 10.9 9.4°
Maximum altitude 19:28:07 14° 236° (WSW) 3,638 10.0 8.8°
Drops below altitude 10° 19:32:21 10° 211° (SSW) 3,894 9.8 8.2°
Sets 19:37:43 0° 187° (S) 4,842 9.9 7.4°
